{"data":{"norad_id":55951,"intl_designator":"2023-037AP","name":"STARLINK-5908","alt_names":[],"object_type":"PAYLOAD","status":"ACTIVE","operator":null,"country":"US","launch_date":"2023-03-17","launch_site_code":"AFWTR","launch_vehicle":null,"mission":null,"orbit_class":"UNKNOWN","rcs_meters":null,"size_class":null,"mass_kg":null,"dimensions":null,"purposes":["comms"],"wikipedia_slug":null,"has_3d_model":false,"image_url":null,"decayed_at":null,"tle_current":{"epoch":"2026-05-25T02:56:41.752608Z","epoch_age_seconds":71338,"freshness":"FRESH","line1":"1 55951U 23037AP  26145.12270547 -.00000402  00000+0 -25870-4 0  9999","line2":"2 55951  69.9998  91.5602 0003156 264.7116  95.3683 14.98334445175431","mean_motion":14.98334445,"eccentricity":0.0003156,"inclination_deg":69.9998,"raan_deg":91.5602,"arg_perigee_deg":264.7116,"mean_anomaly_deg":95.3683,"bstar":-2.587e-5,"rev_number":17543,"period_min":96.106714012038,"perigee_km":569.84866864435,"apogee_km":574.23562172079,"semimajor_km":6950.1791451826,"source":"CELESTRAK","updated_at":"2026-05-25T13:38:17.918329Z"}}}